COSMOS 2251 DEB, 46271

Orbit data source: Space-Track

COSMOS 2251 DEB, 46271 is space debris in LEO originally from a launch on Wed, 16 Jun 1993 UTC launched from the Plesetsk Missile And Space Complex (PKMTR). The debris from Iridium 33, an American commercial communications satellite, has been tracked extensively since its accidental collision with the defunct Russian satellite Cosmos 2251 in 2009. This event, occurring at high speed in low Earth orbit (LEO), generated thousands of pieces of space debris, significantly increasing the risk of further collisions. The Iridium 33 debris cloud has impacted space traffic management and orbital debris mitigation strategies, making it a subject of ongoing study in space situational awareness.

Loading next visibility...
Identifier
46271, 1993-036BWT
Orbit
LEO
Country
Flag of CISCIS
Related business
Manufacturer
Unknown
Mission
Spacecraft
Bus & Motor
Unknown
Mass
Unknown
Launch date (UTC)
1993-06-16 (33 years ago)
Launch vehicle
Unknown
Launch site
Plesetsk Missile And Space Complex (PKMTR)
Object type
Payload
Rocket body
Debris
Shape & HBR
Unknown shape, 0.1 m
Radar Cross Section
Small (<0.1 m²)

Expand to show TLE details & history
Last TLE update: 3 days ago

TLE from 3 days ago
0 COSMOS 2251 DEB
1 46271U 93036BWT 26170.03808501  .00000642  00000-0  16488-3 0  9994
2 46271  74.0459  83.8927 0039928 157.5110 202.7813 14.51843829873746
Epoch: 2026-06-19T00:54Z
TLE epoch observation values (Epoch: 2026-06-19T00:54:50.544Z)
Latitude
-0.00007°
Longitude
162.90928°
Altitude
748.414 km
Speed
7.467 km/s
True Right ascension
05h 35m 34s
True Declination
0° 00' 00"
Sunlit
Object was in daylight at epoch
Visualization orbit readout
Latitude
Unknown
Longitude
Unknown
Altitude
Unknown
Speed
Unknown
Apparent Right ascension
Unknown
Apparent Declination
Unknown
Sunlit
N/A
Visualization observer readout
Local Sidereal Time
23:18:51
Azimuth
Unknown
Elevation
Unknown
Doppler factor
Unknown
Orbital elements
Apogee altitude
745.569 km
Perigee altitude
688.908 km
Semi-major axis
7,095.375 km
Eccentricity
0.00399
Inclination
74.0459°
RAAN
83.8927°
Arg. of periapsis
157.511°
True anomaly
202.60495°
Mean anomaly
202.7813°
Eccentric anomaly
202.69304°
Mean motion
3.63145 °/min
Orbital period
99.13 mins
BSTAR
0.00016488
Loading maneuver chart data...
Computing Atmospheric mass density...

Documentation

Showing up to 5 results
|